Theta_e
325 326 326 327 327 326 326 325 324 323 322 321 319 320 321 320 317 317 316 313 312 311 311 312 311 310 310 309 307 306 305 304 304 303 302 301 300 299 298 298 297 297
325 327 327 328 327 325 324 324 323 323 322 320 320 320 320 319 318 317 315 313 312 311 311 311 310 310 308 307 305 304 304 304 303 302 301 300 299 298 298 297 297 297
325 326 327 327 326 323 322 322 323 323 322 322 321 319 318 318 317 316 313 312 311 311 311 310 309 308 306 305 304 304 304 303 302 301 300 299 298 298 297 297 297 296
325 326 326 326 324 321 320 322 323 323 324 323 321 318 317 317 315 313 312 311 311 311 310 309 308 306 304 304 303 303 303 302 301 300 299 299 298 297 297 296 296 296
324 326 325 324 323 321 320 321 322 324 323 322 319 318 317 315 312 311 311 311 310 310 309 308 305 304 303 303 303 303 302 301 300 299 298 298 297 297 296 296 296 296
322 323 323 323 322 321 320 320 321 322 320 319 318 317 315 312 311 311 311 310 310 309 307 305 303 303 302 302 302 301 301 300 299 298 297 297 297 296 296 296 296 296
317 318 320 322 322 321 320 320 321 320 318 318 318 315 312 311 311 311 310 310 309 307 305 303 302 302 302 302 301 300 300 299 298 297 297 297 296 296 296 296 296 295
315 316 319 321 321 320 320 320 320 319 318 318 315 312 311 311 311 310 310 309 307 305 303 302 302 302 302 301 300 299 298 298 297 297 297 296 296 296 296 296 295 295
316 316 317 318 319 319 320 319 319 318 317 314 312 311 311 311 310 310 309 307 305 303 302 302 302 302 301 300 299 298 298 297 297 296 296 296 296 296 296 295 295 295
317 317 317 319 319 319 319 318 318 316 314 312 311 311 311 310 310 309 307 305 303 302 302 302 302 301 299 299 298 298 297 297 296 296 296 296 296 296 295 295 295 294
317 318 318 319 318 318 317 316 315 313 311 311 311 311 310 310 309 307 305 303 302 302 302 302 300 299 298 298 297 297 297 296 296 296 296 296 296 295 295 295 294 294
316 317 317 317 316 316 315 314 312 311 311 311 311 310 310 309 308 306 304 302 302 302 302 301 299 298 297 297 297 296 296 296 296 296 296 295 295 295 294 294 293 293
314 314 315 315 315 314 313 312 311 311 311 311 310 310 309 308 306 304 302 302 302 301 300 299 297 297 297 296 296 296 296 296 296 296 295 295 295 294 294 293 293 293
314 314 315 314 313 312 311 311 311 311 311 310 310 308 307 305 304 303 302 302 301 300 299 297 297 296 296 296 296 296 296 296 296 295 295 295 294 294 293 293 292 292
314 314 313 312 312 311 311 311 311 311 310 310 309 307 304 303 302 302 302 302 301 299 297 296 296 296 296 296 296 296 296 296 295 295 294 294 294 293 293 292 292 292
313 312 311 311 311 311 311 311 310 310 310 309 307 305 303 302 302 302 301 301 299 297 297 296 296 296 296 296 296 296 296 295 295 294 294 293 293 292 292 292 292 292
311 311 311 311 311 311 311 311 310 309 309 307 305 304 303 302 302 302 301 300 297 296 296 296 296 296 296 296 296 296 295 294 294 294 294 293 292 292 292 292 292 292
311 311 311 311 311 311 310 310 310 308 307 305 303 302 302 301 301 301 299 298 296 296 296 296 296 296 296 296 296 295 294 294 294 293 293 293 292 292 292 292 291 291
311 311 311 311 310 310 310 309 308 306 305 303 302 301 301 301 300 299 297 296 296 296 295 295 296 296 296 296 295 294 294 294 293 293 292 292 292 292 292 291 291 291
311 311 311 311 310 310 309 308 306 304 303 302 301 301 301 300 299 297 296 295 295 295 295 295 295 295 295 295 294 294 294 293 293 292 292 292 291 291 291 291 291 291
311 311 310 310 310 309 308 306 304 302 301 301 301 300 300 299 297 296 295 295 295 295 295 295 295 295 295 294 294 293 293 293 292 292 292 291 291 291 291 291 290 290
311 310 310 310 309 308 306 304 302 301 301 301 300 299 298 297 296 295 295 295 295 294 294 294 294 294 294 294 294 293 293 293 292 292 291 291 291 290 290 290 290 290
311 310 310 309 309 307 305 303 302 301 300 300 299 298 297 296 295 295 295 294 294 294 294 294 294 294 294 294 293 293 293 292 292 292 291 291 290 290 290 290 289 289
310 310 310 309 308 306 304 302 301 300 300 299 298 297 296 295 295 295 294 294 294 294 294 293 293 293 294 294 293 293 293 292 292 291 291 290 290 290 290 289 289 289
310 309 309 308 307 305 303 301 300 300 299 298 297 296 295 295 294 294 294 294 294 293 293 293 293 294 294 293 293 294 293 292 292 291 290 290 290 290 289 289 289 288
309 309 308 307 305 303 301 300 299 299 298 297 296 295 294 294 294 294 294 294 293 293 293 293 293 293 294 293 294 294 293 292 291 291 290 290 290 289 289 289 288 288
Wind_Speed
28 27 26 26 26 26 26 24 23 22 20 20 19 17 16 17 13 11 9 8 7 7 6 6 5 4 3 2 2 1 1 1 2 3 4 5 6 7 8 9 10 10
29 28 27 26 27 27 25 22 21 20 19 19 19 17 18 17 13 11 10 9 8 8 7 7 6 5 4 4 3 2 1 1 2 3 4 6 7 8 9 9 10 11
30 30 29 29 28 26 23 22 21 21 21 20 19 19 17 15 12 11 11 10 9 9 8 7 7 7 6 5 4 3 2 2 3 4 5 7 8 9 9 10 11 12
30 30 29 29 28 24 23 24 24 23 23 22 21 19 15 13 12 12 12 12 11 11 10 9 8 8 6 5 4 3 2 2 3 5 6 8 8 9 10 11 12 13
30 30 29 28 26 24 24 25 25 26 26 24 21 17 14 13 13 13 14 14 13 12 11 10 9 8 7 5 4 3 2 3 5 6 7 8 9 10 11 12 13 14
29 29 28 27 26 26 26 26 26 27 25 21 18 16 15 15 15 15 16 15 14 13 12 11 9 8 7 5 4 3 3 4 6 6 7 9 9 11 12 13 15 16
29 28 27 27 27 27 27 26 26 24 21 18 17 17 17 17 18 18 18 16 15 14 12 11 9 8 7 5 3 3 4 5 6 7 8 10 10 12 13 14 16 17
27 27 27 28 28 28 27 26 24 21 19 18 18 19 19 20 20 20 18 16 15 14 12 11 10 8 7 5 3 4 4 5 7 8 9 10 12 13 14 15 17 17
26 26 27 28 27 27 26 24 22 20 20 20 20 21 22 22 21 19 18 16 15 14 12 11 10 8 6 5 4 4 5 6 7 9 10 11 13 14 15 16 17 17
25 25 25 26 26 26 25 24 22 21 21 22 22 23 23 23 21 19 17 16 15 14 13 11 10 8 6 5 5 5 6 7 8 9 11 12 14 15 16 16 17 18
25 25 26 26 26 25 24 23 23 23 23 24 24 25 24 23 21 19 18 17 16 14 12 11 9 8 7 6 5 6 6 7 9 10 12 13 15 16 17 17 18 19
26 27 27 26 25 24 24 24 24 24 25 25 25 25 24 22 21 20 19 17 16 14 12 11 9 8 7 7 6 6 7 8 9 11 13 14 15 16 17 18 19 19
27 26 25 24 24 25 25 25 26 26 26 27 26 25 23 22 21 20 19 17 15 14 12 11 10 9 8 7 6 7 7 9 10 12 14 15 16 17 17 18 19 20
26 25 24 25 25 26 26 27 27 27 28 27 26 25 23 22 21 19 18 17 15 13 12 11 10 9 8 7 7 7 8 10 11 12 13 15 16 17 18 18 19 21
26 26 26 26 27 27 28 28 28 29 29 28 26 25 24 22 21 19 18 16 15 13 13 12 11 9 8 7 7 8 9 11 12 12 13 15 16 17 18 19 20 21
27 28 28 28 28 29 29 29 29 30 29 28 27 25 24 23 21 20 18 16 15 14 13 12 10 9 8 8 8 9 11 11 12 13 14 15 16 17 18 20 21 22
28 29 29 29 29 29 30 30 30 30 29 28 27 26 25 23 22 20 18 16 16 15 14 12 10 9 9 9 9 10 11 12 13 14 15 16 17 18 19 21 22 23
29 29 29 30 31 31 31 32 31 30 29 28 27 26 25 23 21 19 18 17 17 15 14 12 11 10 10 9 10 10 11 12 14 15 16 17 19 20 21 22 23 23
29 30 30 31 32 32 32 32 31 30 30 28 27 26 24 23 21 20 19 18 17 15 13 12 11 10 10 10 10 11 12 13 15 16 17 18 20 21 22 24 24 24
29 31 32 32 33 33 33 32 31 31 29 28 27 25 24 22 21 20 19 18 16 15 13 12 11 10 10 10 10 11 13 14 16 17 18 20 21 22 24 25 25 26
31 32 33 34 34 34 33 33 32 31 30 28 27 25 23 22 22 20 19 18 16 15 14 12 11 10 10 10 11 12 14 15 17 18 20 21 22 23 24 25 26 26
32 33 34 34 34 34 34 33 32 31 30 29 27 26 24 23 22 21 19 18 16 15 14 12 11 10 10 10 11 13 14 16 18 20 21 22 22 23 24 25 26 27
34 34 35 35 35 35 34 34 33 31 30 29 28 26 25 24 23 21 19 18 17 15 14 12 11 10 10 11 12 14 15 17 19 21 22 22 23 23 24 25 25 27
34 34 35 36 36 36 35 34 33 32 30 29 28 27 26 25 23 21 20 18 17 15 13 12 11 10 11 12 13 15 16 18 20 22 23 23 23 23 24 24 25 26
35 35 36 36 36 36 35 34 33 32 31 29 28 27 25 24 23 21 20 18 17 15 13 11 10 10 11 13 15 16 18 20 21 23 23 24 24 24 24 25 25 25
36 36 37 37 37 36 35 34 33 32 31 30 29 28 26 24 23 22 20 18 16 15 13 11 11 11 12 14 16 17 19 21 23 24 24 25 25 25 25 25 24 24
Wind_Direction
235 235 235 236 236 236 237 240 240 241 241 237 236 238 243 248 243 237 240 232 221 209 187 177 175 175 191 201 201 195 161 38 7 359 351 351 349 349 350 349 348 347
234 233 233 234 237 238 235 234 236 238 240 238 236 236 237 238 238 238 236 224 209 193 180 179 183 193 204 201 198 202 210 317 345 345 347 349 348 349 347 344 342 339
234 234 233 233 237 238 231 227 228 232 236 237 238 238 233 231 234 234 224 210 196 187 186 190 197 204 202 199 205 217 244 308 336 343 346 345 344 344 340 337 335 332
234 234 233 233 236 235 227 224 223 225 229 234 236 235 228 225 227 220 208 196 189 189 195 199 203 204 201 205 215 232 267 313 335 341 342 340 338 337 333 331 330 330
234 233 232 231 231 229 225 223 222 222 225 230 231 227 223 219 215 205 196 191 191 196 200 202 203 202 206 215 222 242 282 324 334 337 337 333 332 330 328 328 329 330
232 231 230 227 226 225 224 221 221 223 225 226 224 219 215 210 204 197 192 192 196 200 201 201 203 205 211 219 230 263 307 327 328 331 327 325 327 326 327 329 327 327
231 228 224 221 220 222 221 218 219 222 222 219 214 210 208 203 197 193 192 195 199 200 200 201 205 210 216 224 244 283 310 318 319 321 321 322 325 325 326 325 323 322
227 224 218 215 216 217 216 216 219 221 216 211 206 204 201 197 194 193 194 197 198 199 202 205 210 215 222 235 255 280 297 308 312 315 318 321 323 322 322 320 319 319
221 219 215 214 214 214 215 217 219 215 208 204 202 199 195 192 192 195 196 198 199 202 206 209 215 221 228 240 255 276 294 303 308 313 317 319 319 319 319 318 318 318
217 217 216 215 215 216 216 215 210 204 200 200 198 195 193 192 193 195 198 201 203 206 209 213 219 223 230 242 256 275 290 298 306 312 314 316 317 318 319 319 319 318
216 217 216 216 215 213 209 204 200 197 197 197 194 192 193 195 196 197 200 203 205 208 212 216 220 225 232 243 257 271 287 300 307 312 314 316 318 318 319 319 318 317
216 215 214 211 208 203 198 196 196 196 196 194 192 193 195 196 198 200 202 204 206 210 215 219 222 226 232 242 258 274 292 303 308 313 315 317 318 318 319 318 317 316
213 210 207 202 198 196 194 195 195 195 195 193 192 194 197 199 200 202 203 204 209 214 216 218 222 227 235 247 264 281 295 304 309 314 316 316 318 318 317 316 315 315
205 202 198 195 195 195 195 196 195 194 193 193 193 194 198 201 203 204 206 208 211 214 216 220 224 229 241 255 271 286 296 304 310 312 314 315 315 315 315 315 315 315
197 195 194 194 195 196 197 196 195 193 193 195 195 196 198 201 203 206 209 212 214 215 218 221 226 233 246 260 273 288 296 302 308 309 312 314 313 314 314 315 316 316
193 194 195 196 197 198 197 195 194 195 195 196 197 199 201 203 205 208 210 213 216 217 219 222 229 238 251 264 276 288 296 302 307 309 311 312 312 314 315 316 317 316
195 197 197 198 198 198 196 196 196 197 197 198 200 201 203 205 208 210 212 215 216 217 220 225 233 243 253 267 279 290 299 305 308 310 311 312 314 315 317 317 317 316
199 200 201 200 199 198 197 197 198 198 199 201 202 203 205 207 209 212 214 216 216 218 222 227 235 246 257 272 283 293 302 306 308 310 312 314 316 318 318 317 316 316
203 203 203 202 200 199 198 198 199 200 201 202 204 206 208 209 211 213 214 216 217 219 225 230 238 250 262 276 288 297 303 306 309 312 314 316 319 319 318 317 316 315
206 205 205 203 202 200 199 199 200 201 202 204 206 208 210 211 213 214 215 216 219 222 227 233 242 254 267 281 293 299 304 307 310 313 316 319 321 320 318 317 315 314
209 207 206 205 203 202 200 201 202 203 204 206 208 210 212 213 215 216 216 218 221 225 231 237 247 259 272 286 295 300 305 310 312 316 319 321 321 319 317 315 314 315
211 209 208 207 205 203 202 203 204 205 206 208 209 210 212 213 214 215 217 219 223 227 233 241 252 264 276 288 297 303 307 312 315 318 320 320 319 317 315 314 315 316
213 211 210 209 207 206 205 206 206 207 209 211 212 212 213 214 215 216 217 220 224 229 235 244 255 267 280 291 300 306 310 314 317 317 317 317 316 314 314 314 315 317
215 214 213 211 210 209 208 208 208 209 210 212 213 215 215 215 216 217 218 221 224 230 237 247 258 271 285 296 303 308 312 315 315 314 315 314 313 313 313 314 316 319
217 215 214 213 212 211 211 211 211 211 211 212 212 214 216 216 216 217 219 222 226 231 238 248 261 275 288 298 304 309 312 312 312 312 312 312 312 312 313 315 318 321
218 216 215 214 213 213 212 212 213 213 213 213 213 213 214 215 217 218 220 224 228 233 239 249 263 278 291 299 305 308 309 309 309 310 310 310 310 311 313 316 320 323